| time (UTC) | temp C | wind direction | speed KPH | gust KPH | rain 1hr cm | rain 24hr cm | rain mn cm | humidity % | barometer mb |
| 20260509115053 | 19 | 55 | 3.2 | 8.0 | 0.00 | 0.00 | 0.00 | 52 | 1019.0 |
| 20260509114553 | 20 | 138 | 1.6 | 6.4 | 0.00 | 0.00 | 0.00 | 54 | 1019.0 |
| 20260509114052 | 19 | 132 | 3.2 | 6.4 | 0.00 | 0.00 | 0.00 | 53 | 1019.0 |
| 20260509113555 | 18 | 28 | 1.6 | 8.0 | 0.00 | 0.00 | 0.00 | 54 | 1019.0 |
| 20260509113051 | 19 | 9 | 1.6 | 8.0 | 0.00 | 0.00 | 0.00 | 55 | 1019.1 |
| 20260509112550 | 18 | 41 | 3.2 | 8.0 | 0.00 | 0.00 | 0.00 | 54 | 1019.2 |
| 20260509112049 | 20 | 105 | 0.0 | 6.4 | 0.00 | 0.00 | 0.00 | 54 | 1019.3 |
| 20260509111549 | 20 | 105 | 0.0 | 6.4 | 0.00 | 0.00 | 0.00 | 55 | 1019.4 |
| 20260509111048 | 19 | 96 | 1.6 | 6.4 | 0.00 | 0.00 | 0.00 | 56 | 1019.4 |
| 20260509110547 | 19 | 9 | 1.6 | 8.0 | 0.00 | 0.00 | 0.00 | 55 | 1019.5 |
| 20260509110048 | 18 | 68 | 3.2 | 6.4 | 0.00 | 0.00 | 0.00 | 55 | 1019.5 |
| 20260509105546 | 18 | 360 | 3.2 | 12.9 | 0.00 | 0.00 | 0.00 | 55 | 1019.6 |
| 20260509105045 | 18 | 9 | 1.6 | 12.9 | 0.00 | 0.00 | 0.00 | 56 | 1019.6 |
| 20260509104601 | 18 | 30 | 1.6 | 6.4 | 0.00 | 0.00 | 0.00 | 57 | 1019.6 |
| 20260509104044 | 18 | 91 | 3.2 | 6.4 | 0.00 | 0.00 | 0.00 | 57 | 1019.8 |
| 20260509103543 | 18 | 99 | 1.6 | 11.3 | 0.00 | 0.00 | 0.00 | 58 | 1019.8 |
| 20260509103045 | 18 | 99 | 3.2 | 11.3 | 0.00 | 0.00 | 0.00 | 57 | 1019.8 |
| 20260509102543 | 18 | 64 | 3.2 | 8.0 | 0.00 | 0.00 | 0.00 | 57 | 1019.8 |
| 20260509102042 | 18 | 347 | 1.6 | 8.0 | 0.00 | 0.00 | 0.00 | 59 | 1019.9 |
| 20260509101543 | 17 | 350 | 3.2 | 8.0 | 0.00 | 0.00 | 0.00 | 59 | 1019.9 |
| 20260509101042 | 17 | 42 | 3.2 | 8.0 | 0.00 | 0.00 | 0.00 | 61 | 1020.0 |
| 20260509100543 | 17 | 122 | 1.6 | 12.9 | 0.00 | 0.00 | 0.00 | 63 | 1020.1 |
| 20260509100042 | 17 | 132 | 6.4 | 12.9 | 0.00 | 0.00 | 0.00 | 61 | 1020.2 |
| 20260509095543 | 17 | 338 | 1.6 | 12.9 | 0.00 | 0.00 | 0.00 | 61 | 1020.2 |
| 20260509095042 | 18 | 336 | 1.6 | 8.0 | 0.00 | 0.00 | 0.00 | 61 | 1020.2 |
| 20260509094542 | 17 | 347 | 1.6 | 8.0 | 0.00 | 0.00 | 0.00 | 63 | 1020.3 |
| 20260509094039 | 17 | 355 | 1.6 | 8.0 | 0.00 | 0.00 | 0.00 | 67 | 1020.3 |
| 20260509093539 | 17 | 360 | 3.2 | 9.7 | 0.00 | 0.00 | 0.00 | 64 | 1020.4 |
| 20260509093038 | 17 | 13 | 1.6 | 9.7 | 0.00 | 0.00 | 0.00 | 67 | 1020.3 |
| 20260509092541 | 16 | 355 | 1.6 | 6.4 | 0.00 | 0.00 | 0.00 | 65 | 1020.3 |
| 20260509092036 | 16 | 342 | 1.6 | 8.0 | 0.00 | 0.00 | 0.00 | 67 | 1020.3 |
| 20260509091540 | 16 | 338 | 3.2 | 8.0 | 0.00 | 0.00 | 0.00 | 66 | 1020.4 |
| 20260509091036 | 16 | 73 | 1.6 | 8.0 | 0.00 | 0.00 | 0.00 | 66 | 1020.4 |
| 20260509090535 | 16 | 11 | 0.0 | 6.4 | 0.00 | 0.00 | 0.00 | 70 | 1020.4 |
| 20260509090048 | 15 | 5 | 3.2 | 6.4 | 0.00 | 0.00 | 0.00 | 69 | 1020.4 |
| 20260509085533 | 16 | 360 | 3.2 | 6.4 | 0.00 | 0.00 | 0.00 | 72 | 1020.4 |
| 20260509085033 | 15 | 360 | 3.2 | 6.4 | 0.00 | 0.00 | 0.00 | 70 | 1020.4 |
| 20260509084533 | 15 | 38 | 1.6 | 8.0 | 0.00 | 0.00 | 0.00 | 72 | 1020.4 |
| 20260509084033 | 14 | 5 | 3.2 | 8.0 | 0.00 | 0.00 | 0.00 | 73 | 1020.4 |
| 20260509083531 | 15 | 360 | 3.2 | 8.0 | 0.00 | 0.00 | 0.00 | 70 | 1020.5 |
| 20260509083031 | 14 | 67 | 1.6 | 12.9 | 0.00 | 0.00 | 0.00 | 72 | 1020.4 |
| 20260509082530 | 14 | 52 | 0.0 | 12.9 | 0.00 | 0.00 | 0.00 | 74 | 1020.5 |
| 20260509082028 | 14 | 345 | 0.0 | 6.4 | 0.00 | 0.00 | 0.00 | 77 | 1020.5 |
| 20260509081540 | 13 | 5 | 3.2 | 8.0 | 0.00 | 0.00 | 0.00 | 75 | 1020.5 |
| 20260509081026 | 13 | 55 | 0.0 | 8.0 | 0.00 | 0.00 | 0.00 | 78 | 1020.5 |
| 20260509080525 | 13 | 347 | 1.6 | 8.0 | 0.00 | 0.00 | 0.00 | 78 | 1020.5 |
| 20260509080025 | 12 | 347 | 3.2 | 8.0 | 0.00 | 0.00 | 0.00 | 79 | 1020.5 |
| 20260509075524 | 12 | 336 | 3.2 | 8.0 | 0.00 | 0.00 | 0.00 | 80 | 1020.5 |
| 20260509075023 | 12 | 349 | 3.2 | 9.7 | 0.00 | 0.00 | 0.00 | 81 | 1020.5 |
| 20260509074524 | 12 | 5 | 3.2 | 9.7 | 0.00 | 0.00 | 0.00 | 81 | 1020.6 |
| 20260509074022 | 12 | 37 | 1.6 | 8.0 | 0.00 | 0.00 | 0.00 | 83 | 1020.6 |
| 20260509073521 | 11 | 340 | 3.2 | 9.7 | 0.00 | 0.00 | 0.00 | 83 | 1020.6 |
| 20260509073035 | 11 | 339 | 3.2 | 9.7 | 0.00 | 0.00 | 0.00 | 84 | 1020.7 |
| 20260509072521 | 11 | 342 | 4.8 | 9.7 | 0.00 | 0.00 | 0.00 | 84 | 1020.6 |
| 20260509072018 | 11 | 336 | 4.8 | 9.7 | 0.00 | 0.00 | 0.00 | 85 | 1020.6 |
| 20260509071519 | 11 | 15 | 3.2 | 9.7 | 0.00 | 0.00 | 0.00 | 85 | 1020.7 |
| 20260509071016 | 10 | 341 | 3.2 | 8.0 | 0.00 | 0.00 | 0.00 | 85 | 1020.7 |
| 20260509070517 | 10 | 355 | 3.2 | 8.0 | 0.00 | 0.00 | 0.00 | 87 | 1020.7 |
| 20260509070030 | 10 | 355 | 3.2 | 8.0 | 0.00 | 0.00 | 0.00 | 88 | 1020.7 |
| 20260509065517 | 10 | 14 | 4.8 | 8.0 | 0.00 | 0.00 | 0.00 | 88 | 1020.8 |
| 20260509065010 | 9 | 355 | 3.2 | 8.0 | 0.00 | 0.00 | 0.00 | 89 | 1020.8 |
| 20260509064510 | 9 | 13 | 4.8 | 8.0 | 0.00 | 0.00 | 0.00 | 89 | 1020.9 |
| 20260509064008 | 8 | 5 | 3.2 | 8.0 | 0.00 | 0.00 | 0.00 | 90 | 1020.8 |
| 20260509063508 | 8 | 343 | 4.8 | 8.0 | 0.00 | 0.00 | 0.00 | 90 | 1020.6 |
| 20260509063012 | 8 | 346 | 3.2 | 8.0 | 0.00 | 0.00 | 0.00 | 90 | 1020.6 |
| 20260509062507 | 8 | 348 | 3.2 | 6.4 | 0.00 | 0.00 | 0.00 | 91 | 1020.6 |
| 20260509062007 | 8 | 349 | 1.6 | 8.0 | 0.00 | 0.00 | 0.00 | 91 | 1020.7 |
| 20260509061506 | 8 | 355 | 3.2 | 8.0 | 0.00 | 0.00 | 0.00 | 92 | 1020.6 |
| 20260509061007 | 7 | 5 | 1.6 | 6.4 | 0.00 | 0.00 | 0.00 | 91 | 1020.6 |
| 20260509060505 | 7 | 355 | 3.2 | 8.0 | 0.00 | 0.00 | 0.00 | 92 | 1020.5 |
| 20260509060006 | 7 | 342 | 4.8 | 8.0 | 0.00 | 0.00 | 0.00 | 91 | 1020.6 |
| 20260509055505 | 7 | 355 | 3.2 | 8.0 | 0.00 | 0.00 | 0.00 | 92 | 1020.5 |
| 20260509055007 | 7 | 340 | 4.8 | 8.0 | 0.00 | 0.00 | 0.00 | 92 | 1020.6 |
| 20260509054504 | 7 | 360 | 3.2 | 6.4 | 0.00 | 0.00 | 0.00 | 92 | 1020.5 |
| 20260509054003 | 7 | 5 | 3.2 | 6.4 | 0.00 | 0.00 | 0.00 | 92 | 1020.6 |
| 20260509053503 | 7 | 5 | 3.2 | 6.4 | 0.00 | 0.00 | 0.00 | 93 | 1020.5 |
| 20260509053005 | 7 | 5 | 3.2 | 6.4 | 0.00 | 0.00 | 0.00 | 93 | 1020.5 |
| 20260509052503 | 7 | 5 | 3.2 | 6.4 | 0.00 | 0.00 | 0.00 | 93 | 1020.3 |
| 20260509052002 | 7 | 35 | 3.2 | 6.4 | 0.00 | 0.00 | 0.00 | 93 | 1020.3 |
| 20260509051501 | 7 | 35 | 1.6 | 6.4 | 0.00 | 0.00 | 0.00 | 93 | 1020.2 |
| 20260509051100 | 6 | 35 | 1.6 | 6.4 | 0.00 | 0.00 | 0.00 | 93 | 1020.2 |
| 20260509050600 | 6 | 35 | 0.0 | 3.2 | 0.00 | 0.00 | 0.00 | 93 | 1020.0 |
| 20260509050059 | 6 | 35 | 0.0 | 1.6 | 0.00 | 0.00 | 0.00 | 93 | 1019.9 |
| 20260509045600 | 6 | 35 | 0.0 | 3.2 | 0.00 | 0.00 | 0.00 | 93 | 1019.9 |
| 20260509045100 | 6 | 35 | 0.0 | 3.2 | 0.00 | 0.00 | 0.00 | 93 | 1019.9 |
| 20260509044700 | 6 | 35 | 0.0 | 0.0 | 0.00 | 0.00 | 0.00 | 93 | 1019.9 |
| 20260509044100 | 6 | 35 | 0.0 | 0.0 | 0.00 | 0.00 | 0.00 | 93 | 1019.9 |
| 20260509043559 | 5 | 35 | 0.0 | 0.0 | 0.00 | 0.00 | 0.00 | 93 | 1019.9 |
| 20260509043058 | 5 | 35 | 0.0 | 0.0 | 0.00 | 0.00 | 0.00 | 93 | 1019.8 |
| 20260509042558 | 5 | 35 | 0.0 | 0.0 | 0.00 | 0.00 | 0.00 | 93 | 1019.8 |
| 20260509042100 | 5 | 35 | 0.0 | 0.0 | 0.00 | 0.00 | 0.00 | 93 | 1019.7 |
| 20260509041558 | 5 | 35 | 0.0 | 0.0 | 0.00 | 0.00 | 0.00 | 93 | 1019.7 |
| 20260509041059 | 5 | 35 | 0.0 | 0.0 | 0.00 | 0.00 | 0.00 | 93 | 1019.7 |
| 20260509040556 | 5 | 35 | 0.0 | 0.0 | 0.00 | 0.00 | 0.00 | 93 | 1019.7 |
| 20260509040057 | 5 | 35 | 0.0 | 0.0 | 0.00 | 0.00 | 0.00 | 93 | 1019.7 |
| 20260509035556 | 5 | 35 | 0.0 | 0.0 | 0.00 | 0.03 | 0.00 | 93 | 1019.7 |
| 20260509035056 | 5 | 35 | 0.0 | 0.0 | 0.00 | 0.03 | 0.00 | 93 | 1019.7 |
| 20260509034556 | 5 | 35 | 0.0 | 1.6 | 0.00 | 0.03 | 0.00 | 93 | 1019.7 |
| 20260509034055 | 5 | 35 | 0.0 | 3.2 | 0.00 | 0.03 | 0.00 | 93 | 1019.7 |
| 20260509033555 | 5 | 35 | 0.0 | 1.6 | 0.00 | 0.03 | 0.00 | 93 | 1019.7 |
| 20260509033054 | 6 | 35 | 0.0 | 1.6 | 0.00 | 0.03 | 0.00 | 93 | 1019.6 |
| 20260509032554 | 6 | 35 | 0.0 | 3.2 | 0.00 | 0.03 | 0.00 | 93 | 1019.6 |
| 20260509032053 | 6 | 35 | 0.0 | 3.2 | 0.00 | 0.03 | 0.00 | 93 | 1019.7 |
| 20260509031553 | 6 | 35 | 0.0 | 3.2 | 0.00 | 0.03 | 0.00 | 93 | 1019.8 |
| 20260509031053 | 6 | 35 | 0.0 | 0.0 | 0.00 | 0.03 | 0.00 | 93 | 1019.7 |
| 20260509030553 | 6 | 35 | 0.0 | 0.0 | 0.00 | 0.03 | 0.00 | 93 | 1019.8 |
| 20260509030055 | 6 | 35 | 0.0 | 1.6 | 0.00 | 0.03 | 0.00 | 93 | 1019.8 |
| 20260509025552 | 6 | 35 | 0.0 | 3.2 | 0.00 | 0.03 | 0.00 | 93 | 1019.8 |
| 20260509025053 | 6 | 35 | 1.6 | 4.8 | 0.00 | 0.03 | 0.00 | 93 | 1019.9 |
| 20260509024552 | 6 | 35 | 1.6 | 4.8 | 0.00 | 0.03 | 0.00 | 93 | 1020.0 |
| 20260509024053 | 6 | 35 | 1.6 | 4.8 | 0.00 | 0.03 | 0.00 | 93 | 1020.0 |
| 20260509023553 | 6 | 35 | 1.6 | 4.8 | 0.00 | 0.03 | 0.00 | 93 | 1020.0 |
| 20260509023051 | 6 | 35 | 0.0 | 4.8 | 0.00 | 0.03 | 0.00 | 93 | 1019.9 |
| 20260509022551 | 6 | 35 | 0.0 | 4.8 | 0.00 | 0.03 | 0.00 | 92 | 1019.9 |
| 20260509022051 | 5 | 35 | 0.0 | 4.8 | 0.00 | 0.03 | 0.00 | 92 | 1019.8 |
| 20260509021550 | 6 | 35 | 0.0 | 4.8 | 0.00 | 0.03 | 0.00 | 92 | 1019.8 |
| 20260509021049 | 6 | 35 | 1.6 | 4.8 | 0.00 | 0.03 | 0.00 | 92 | 1019.8 |
| 20260509020549 | 6 | 35 | 1.6 | 4.8 | 0.00 | 0.03 | 0.00 | 92 | 1019.8 |
| 20260509020055 | 6 | 35 | 0.0 | 0.0 | 0.00 | 0.03 | 0.00 | 92 | 1019.6 |
| 20260509015548 | 6 | 35 | 0.0 | 0.0 | 0.00 | 0.03 | 0.00 | 92 | 1019.6 |
| 20260509015048 | 6 | 35 | 0.0 | 1.6 | 0.00 | 0.03 | 0.00 | 92 | 1019.6 |
| 20260509014550 | 6 | 35 | 0.0 | 3.2 | 0.00 | 0.03 | 0.00 | 92 | 1019.7 |
| 20260509014049 | 6 | 35 | 1.6 | 4.8 | 0.00 | 0.03 | 0.00 | 92 | 1019.7 |
| 20260509013545 | 6 | 35 | 1.6 | 4.8 | 0.00 | 0.03 | 0.00 | 92 | 1019.8 |
| 20260509013043 | 6 | 35 | 1.6 | 4.8 | 0.00 | 0.03 | 0.00 | 92 | 1019.8 |
| 20260509012542 | 6 | 35 | 0.0 | 4.8 | 0.00 | 0.03 | 0.00 | 92 | 1019.8 |
| 20260509012043 | 7 | 35 | 0.0 | 3.2 | 0.00 | 0.03 | 0.00 | 92 | 1019.7 |
| 20260509011542 | 7 | 35 | 0.0 | 3.2 | 0.00 | 0.03 | 0.00 | 92 | 1019.7 |
| 20260509011041 | 7 | 35 | 0.0 | 3.2 | 0.00 | 0.03 | 0.00 | 92 | 1019.9 |
| 20260509010540 | 7 | 35 | 0.0 | 3.2 | 0.00 | 0.03 | 0.00 | 91 | 1019.7 |
| 20260509010040 | 7 | 35 | 1.6 | 4.8 | 0.00 | 0.03 | 0.00 | 91 | 1019.9 |
| 20260509005540 | 7 | 35 | 1.6 | 4.8 | 0.00 | 0.03 | 0.00 | 91 | 1019.9 |
| 20260509005040 | 7 | 35 | 0.0 | 4.8 | 0.00 | 0.03 | 0.00 | 91 | 1019.9 |
| 20260509004540 | 7 | 35 | 3.2 | 4.8 | 0.00 | 0.03 | 0.00 | 91 | 1019.9 |
| 20260509004039 | 7 | 35 | 1.6 | 4.8 | 0.00 | 0.03 | 0.00 | 91 | 1019.9 |
| 20260509003538 | 7 | 35 | 1.6 | 4.8 | 0.00 | 0.03 | 0.00 | 91 | 1019.9 |
| 20260509003042 | 7 | 35 | 1.6 | 4.8 | 0.00 | 0.03 | 0.00 | 91 | 1019.9 |
| 20260509002538 | 7 | 35 | 1.6 | 3.2 | 0.00 | 0.03 | 0.00 | 91 | 1020.0 |
| 20260509002040 | 7 | 35 | 1.6 | 3.2 | 0.00 | 0.03 | 0.00 | 91 | 1019.9 |
| 20260509001535 | 7 | 35 | 0.0 | 0.0 | 0.00 | 0.03 | 0.00 | 91 | 1019.9 |
| 20260509001035 | 7 | 35 | 0.0 | 0.0 | 0.00 | 0.03 | 0.00 | 91 | 1019.8 |
| 20260509000534 | 7 | 35 | 0.0 | 0.0 | 0.00 | 0.03 | 0.00 | 91 | 1019.9 |
| 20260509000034 | 7 | 35 | 0.0 | 0.0 | 0.00 | 0.03 | 0.00 | 91 | 1020.0 |
| 20260508235533 | 7 | 35 | 0.0 | 0.0 | 0.00 | 0.03 | 0.00 | 91 | 1019.9 |
| 20260508235033 | 7 | 35 | 0.0 | 0.0 | 0.00 | 0.03 | 0.00 | 91 | 1020.0 |
| 20260508234532 | 7 | 35 | 0.0 | 0.0 | 0.00 | 0.03 | 0.00 | 91 | 1020.0 |
| 20260508234034 | 7 | 35 | 0.0 | 0.0 | 0.00 | 0.03 | 0.00 | 91 | 1020.1 |
| 20260508233532 | 7 | 35 | 0.0 | 0.0 | 0.00 | 0.03 | 0.00 | 90 | 1019.9 |
| 20260508233031 | 7 | 35 | 0.0 | 0.0 | 0.00 | 0.03 | 0.00 | 90 | 1019.9 |
| 20260508232530 | 7 | 35 | 0.0 | 0.0 | 0.00 | 0.03 | 0.00 | 90 | 1020.0 |
| 20260508232030 | 7 | 35 | 0.0 | 0.0 | 0.00 | 0.03 | 0.00 | 90 | 1019.9 |
| 20260508231531 | 8 | 35 | 0.0 | 0.0 | 0.00 | 0.03 | 0.00 | 90 | 1020.0 |
| 20260508231029 | 8 | 35 | 0.0 | 0.0 | 0.00 | 0.03 | 0.00 | 90 | 1019.9 |
| 20260508230529 | 8 | 35 | 0.0 | 0.0 | 0.00 | 0.03 | 0.00 | 90 | 1019.9 |
| 20260508230029 | 8 | 35 | 0.0 | 0.0 | 0.00 | 0.03 | 0.00 | 90 | 1020.0 |
| 20260508225528 | 8 | 35 | 0.0 | 0.0 | 0.00 | 0.03 | 0.00 | 90 | 1020.0 |
| 20260508225029 | 8 | 35 | 0.0 | 0.0 | 0.00 | 0.03 | 0.00 | 89 | 1019.9 |
| 20260508224529 | 8 | 35 | 0.0 | 0.0 | 0.00 | 0.03 | 0.00 | 89 | 1019.9 |
| 20260508224026 | 8 | 35 | 0.0 | 3.2 | 0.00 | 0.03 | 0.00 | 89 | 1019.9 |
| 20260508223525 | 8 | 35 | 0.0 | 4.8 | 0.00 | 0.03 | 0.00 | 89 | 1019.9 |
| 20260508223028 | 8 | 35 | 0.0 | 4.8 | 0.00 | 0.03 | 0.00 | 88 | 1019.9 |
| 20260508222524 | 8 | 35 | 0.0 | 4.8 | 0.00 | 0.03 | 0.00 | 88 | 1019.9 |
| 20260508222023 | 8 | 35 | 1.6 | 4.8 | 0.00 | 0.03 | 0.00 | 88 | 1019.8 |
| 20260508221522 | 8 | 35 | 0.0 | 4.8 | 0.00 | 0.03 | 0.00 | 88 | 1019.8 |
| 20260508221030 | 8 | 35 | 1.6 | 4.8 | 0.00 | 0.03 | 0.00 | 88 | 1019.8 |
| 20260508220522 | 8 | 35 | 0.0 | 3.2 | 0.00 | 0.03 | 0.00 | 88 | 1019.8 |
| 20260508220020 | 8 | 35 | 1.6 | 3.2 | 0.00 | 0.03 | 0.00 | 89 | 1019.8 |
| 20260508215520 | 8 | 35 | 0.0 | 0.0 | 0.00 | 0.03 | 0.03 | 88 | 1019.6 |
| 20260508215020 | 8 | 35 | 0.0 | 0.0 | 0.00 | 0.03 | 0.03 | 88 | 1019.7 |
| 20260508214520 | 8 | 35 | 0.0 | 0.0 | 0.00 | 0.03 | 0.03 | 88 | 1019.6 |
| 20260508214020 | 8 | 35 | 0.0 | 1.6 | 0.00 | 0.03 | 0.03 | 88 | 1019.7 |
| 20260508213520 | 9 | 35 | 0.0 | 3.2 | 0.00 | 0.03 | 0.03 | 88 | 1019.6 |
| 20260508213024 | 9 | 35 | 0.0 | 3.2 | 0.00 | 0.03 | 0.03 | 87 | 1019.6 |
| 20260508212520 | 9 | 35 | 0.0 | 0.0 | 0.00 | 0.03 | 0.03 | 87 | 1019.5 |
| 20260508212019 | 9 | 35 | 0.0 | 1.6 | 0.00 | 0.03 | 0.03 | 87 | 1019.5 |
| 20260508211520 | 9 | 35 | 0.0 | 3.2 | 0.00 | 0.03 | 0.03 | 86 | 1019.3 |
| 20260508211020 | 9 | 35 | 0.0 | 3.2 | 0.00 | 0.03 | 0.03 | 87 | 1019.4 |
| 20260508210519 | 9 | 35 | 0.0 | 1.6 | 0.00 | 0.03 | 0.03 | 86 | 1019.4 |
| 20260508210019 | 10 | 35 | 0.0 | 0.0 | 0.00 | 0.03 | 0.03 | 86 | 1019.5 |
| 20260508205519 | 10 | 35 | 0.0 | 3.2 | 0.00 | 0.03 | 0.03 | 85 | 1019.4 |
| 20260508205023 | 10 | 35 | 0.0 | 3.2 | 0.00 | 0.03 | 0.03 | 85 | 1019.2 |
| 20260508204519 | 10 | 35 | 0.0 | 3.2 | 0.00 | 0.03 | 0.03 | 84 | 1019.4 |
| 20260508204019 | 10 | 35 | 0.0 | 3.2 | 0.00 | 0.03 | 0.03 | 84 | 1019.3 |
| 20260508203518 | 10 | 35 | 0.0 | 3.2 | 0.00 | 0.03 | 0.03 | 84 | 1019.2 |
| 20260508203018 | 10 | 35 | 0.0 | 3.2 | 0.00 | 0.03 | 0.03 | 83 | 1019.2 |
| 20260508202517 | 10 | 35 | 1.6 | 3.2 | 0.00 | 0.03 | 0.03 | 83 | 1019.2 |
| 20260508202018 | 10 | 35 | 0.0 | 1.6 | 0.00 | 0.03 | 0.03 | 83 | 1019.2 |
| 20260508201517 | 11 | 35 | 0.0 | 1.6 | 0.00 | 0.03 | 0.03 | 82 | 1019.2 |
| 20260508201017 | 11 | 35 | 0.0 | 4.8 | 0.00 | 0.03 | 0.03 | 81 | 1019.2 |
| 20260508200517 | 11 | 35 | 0.0 | 4.8 | 0.00 | 0.03 | 0.03 | 81 | 1019.2 |
| 20260508200021 | 11 | 35 | 1.6 | 4.8 | 0.00 | 0.03 | 0.03 | 80 | 1019.2 |
| 20260508195518 | 11 | 35 | 1.6 | 6.4 | 0.00 | 0.03 | 0.03 | 80 | 1019.1 |
| 20260508195017 | 11 | 36 | 3.2 | 4.8 | 0.00 | 0.03 | 0.03 | 79 | 1019.1 |
| 20260508194517 | 11 | 36 | 1.6 | 4.8 | 0.00 | 0.03 | 0.03 | 79 | 1019.0 |
| 20260508194018 | 11 | 36 | 1.6 | 4.8 | 0.00 | 0.03 | 0.03 | 78 | 1019.0 |
| 20260508193516 | 12 | 36 | 1.6 | 3.2 | 0.00 | 0.03 | 0.03 | 77 | 1018.9 |
| 20260508193017 | 12 | 36 | 1.6 | 4.8 | 0.00 | 0.03 | 0.03 | 77 | 1018.9 |
| 20260508192516 | 12 | 36 | 1.6 | 6.4 | 0.00 | 0.03 | 0.03 | 76 | 1018.8 |
| 20260508192021 | 12 | 36 | 1.6 | 4.8 | 0.00 | 0.03 | 0.03 | 75 | 1018.9 |
| 20260508191524 | 12 | 36 | 1.6 | 6.4 | 0.00 | 0.03 | 0.03 | 74 | 1018.7 |
| 20260508191017 | 13 | 30 | 1.6 | 6.4 | 0.00 | 0.03 | 0.03 | 73 | 1018.6 |
| 20260508190518 | 13 | 30 | 1.6 | 6.4 | 0.00 | 0.03 | 0.03 | 72 | 1018.6 |
| 20260508190022 | 13 | 30 | 1.6 | 6.4 | 0.00 | 0.03 | 0.03 | 72 | 1018.4 |
| 20260508185515 | 13 | 30 | 0.0 | 4.8 | 0.00 | 0.03 | 0.03 | 71 | 1018.3 |
| 20260508185015 | 13 | 30 | 0.0 | 6.4 | 0.00 | 0.03 | 0.03 | 71 | 1018.3 |
| 20260508184516 | 13 | 30 | 1.6 | 6.4 | 0.00 | 0.03 | 0.03 | 71 | 1018.3 |
| 20260508184015 | 14 | 18 | 1.6 | 4.8 | 0.00 | 0.03 | 0.03 | 70 | 1018.3 |
| 20260508183514 | 14 | 17 | 0.0 | 4.8 | 0.00 | 0.03 | 0.03 | 69 | 1018.2 |
| 20260508183015 | 14 | 17 | 1.6 | 6.4 | 0.00 | 0.03 | 0.03 | 69 | 1018.1 |
| 20260508182515 | 14 | 26 | 0.0 | 6.4 | 0.00 | 0.03 | 0.03 | 69 | 1018.2 |
| 20260508182014 | 15 | 26 | 1.6 | 6.4 | 0.00 | 0.03 | 0.03 | 68 | 1018.2 |
| 20260508181516 | 15 | 27 | 1.6 | 8.0 | 0.00 | 0.03 | 0.03 | 67 | 1018.2 |
| 20260508181014 | 15 | 29 | 1.6 | 8.0 | 0.00 | 0.03 | 0.03 | 67 | 1018.0 |
| 20260508180514 | 15 | 29 | 3.2 | 6.4 | 0.00 | 0.03 | 0.03 | 66 | 1018.1 |
| 20260508180014 | 16 | 23 | 1.6 | 6.4 | 0.00 | 0.03 | 0.03 | 64 | 1018.1 |
| 20260508175514 | 16 | 22 | 3.2 | 6.4 | 0.00 | 0.03 | 0.03 | 62 | 1018.0 |
| 20260508175016 | 16 | 24 | 1.6 | 6.4 | 0.00 | 0.03 | 0.03 | 63 | 1018.0 |
| 20260508174514 | 16 | 65 | 1.6 | 8.0 | 0.00 | 0.03 | 0.03 | 61 | 1018.0 |
| 20260508174013 | 16 | 27 | 3.2 | 8.0 | 0.00 | 0.03 | 0.03 | 60 | 1017.9 |
| 20260508173513 | 16 | 34 | 1.6 | 8.0 | 0.00 | 0.03 | 0.03 | 60 | 1017.8 |
| 20260508173013 | 16 | 77 | 3.2 | 11.3 | 0.00 | 0.03 | 0.03 | 59 | 1017.8 |
| 20260508172512 | 16 | 86 | 3.2 | 9.7 | 0.00 | 0.03 | 0.03 | 59 | 1017.8 |
| 20260508172012 | 16 | 50 | 1.6 | 8.0 | 0.00 | 0.03 | 0.03 | 61 | 1017.7 |
| 20260508171519 | 16 | 50 | 3.2 | 8.0 | 0.00 | 0.03 | 0.03 | 60 | 1017.8 |
| 20260508171012 | 16 | 26 | 1.6 | 8.0 | 0.00 | 0.03 | 0.03 | 60 | 1017.8 |
| 20260508170512 | 16 | 48 | 3.2 | 8.0 | 0.00 | 0.03 | 0.03 | 59 | 1017.8 |
| 20260508170012 | 16 | 48 | 3.2 | 9.7 | 0.00 | 0.03 | 0.03 | 58 | 1017.6 |
| 20260508165511 | 16 | 35 | 1.6 | 14.5 | 0.00 | 0.03 | 0.03 | 58 | 1017.6 |
| 20260508165017 | 17 | 49 | 3.2 | 14.5 | 0.00 | 0.03 | 0.03 | 55 | 1017.7 |
| 20260508164512 | 17 | 182 | 1.6 | 6.4 | 0.00 | 0.03 | 0.03 | 51 | 1017.7 |
| 20260508164012 | 17 | 190 | 3.2 | 6.4 | 0.00 | 0.03 | 0.03 | 50 | 1017.7 |
| 20260508163513 | 17 | 229 | 0.0 | 4.8 | 0.00 | 0.03 | 0.03 | 52 | 1017.6 |
| 20260508163014 | 17 | 229 | 1.6 | 4.8 | 0.00 | 0.03 | 0.03 | 52 | 1017.6 |
| 20260508162510 | 17 | 229 | 1.6 | 4.8 | 0.00 | 0.03 | 0.03 | 53 | 1017.7 |
| 20260508162011 | 17 | 229 | 1.6 | 4.8 | 0.00 | 0.03 | 0.03 | 54 | 1017.6 |
| 20260508161510 | 17 | 229 | 3.2 | 4.8 | 0.00 | 0.03 | 0.03 | 51 | 1017.7 |
| 20260508161010 | 17 | 229 | 0.0 | 4.8 | 0.00 | 0.03 | 0.03 | 51 | 1017.7 |
| 20260508160510 | 17 | 229 | 1.6 | 4.8 | 0.00 | 0.03 | 0.03 | 52 | 1017.7 |
| 20260508160009 | 17 | 229 | 0.0 | 8.0 | 0.00 | 0.03 | 0.03 | 52 | 1017.7 |
| 20260508155509 | 17 | 229 | 3.2 | 8.0 | 0.00 | 0.03 | 0.03 | 48 | 1017.8 |
| 20260508155010 | 17 | 229 | 3.2 | 6.4 | 0.00 | 0.03 | 0.03 | 52 | 1017.8 |
| 20260508154510 | 18 | 229 | 3.2 | 6.4 | 0.00 | 0.03 | 0.03 | 51 | 1017.7 |
| 20260508154008 | 18 | 230 | 1.6 | 4.8 | 0.00 | 0.03 | 0.03 | 55 | 1017.8 |
| 20260508153510 | 17 | 230 | 1.6 | 4.8 | 0.00 | 0.03 | 0.03 | 51 | 1017.8 |
| 20260508153008 | 17 | 230 | 0.0 | 3.2 | 0.00 | 0.03 | 0.03 | 49 | 1017.8 |
| 20260508152510 | 17 | 230 | 1.6 | 6.4 | 0.00 | 0.03 | 0.03 | 50 | 1017.9 |
| 20260508152007 | 17 | 230 | 3.2 | 8.0 | 0.00 | 0.03 | 0.03 | 55 | 1018.0 |
| 20260508151507 | 17 | 229 | 4.8 | 8.0 | 0.00 | 0.03 | 0.03 | 55 | 1018.1 |
| 20260508151011 | 17 | 225 | 3.2 | 8.0 | 0.00 | 0.03 | 0.03 | 53 | 1018.0 |
| 20260508150506 | 17 | 224 | 3.2 | 8.0 | 0.00 | 0.03 | 0.03 | 55 | 1018.0 |
| 20260508150006 | 17 | 194 | 4.8 | 6.4 | 0.00 | 0.03 | 0.03 | 54 | 1018.2 |
| 20260508145505 | 17 | 156 | 3.2 | 8.0 | 0.00 | 0.03 | 0.03 | 51 | 1018.1 |
| 20260508145004 | 17 | 155 | 3.2 | 8.0 | 0.00 | 0.03 | 0.03 | 54 | 1018.1 |
| 20260508144505 | 17 | 150 | 1.6 | 4.8 | 0.00 | 0.03 | 0.03 | 50 | 1018.2 |
| 20260508144004 | 17 | 150 | 1.6 | 4.8 | 0.00 | 0.03 | 0.03 | 53 | 1018.2 |
| 20260508143504 | 17 | 150 | 1.6 | 4.8 | 0.00 | 0.03 | 0.03 | 53 | 1018.3 |
| 20260508143004 | 18 | 150 | 3.2 | 8.0 | 0.00 | 0.03 | 0.03 | 52 | 1018.3 |
| 20260508142502 | 17 | 133 | 1.6 | 9.7 | 0.00 | 0.03 | 0.03 | 48 | 1018.4 |
| 20260508142003 | 17 | 122 | 0.0 | 9.7 | 0.00 | 0.03 | 0.03 | 48 | 1018.4 |
| 20260508141503 | 18 | 123 | 3.2 | 8.0 | 0.00 | 0.03 | 0.03 | 50 | 1018.4 |
| 20260508141003 | 18 | 248 | 1.6 | 6.4 | 0.00 | 0.03 | 0.03 | 48 | 1018.6 |
| 20260508140503 | 17 | 250 | 1.6 | 4.8 | 0.00 | 0.03 | 0.03 | 51 | 1018.6 |
| 20260508140002 | 17 | 250 | 1.6 | 9.7 | 0.00 | 0.03 | 0.03 | 50 | 1018.5 |
| 20260508135502 | 16 | 250 | 3.2 | 9.7 | 0.00 | 0.03 | 0.03 | 51 | 1018.5 |
| 20260508135002 | 17 | 287 | 3.2 | 6.4 | 0.00 | 0.03 | 0.03 | 49 | 1018.6 |
| 20260508134501 | 17 | 341 | 0.0 | 3.2 | 0.00 | 0.03 | 0.03 | 51 | 1018.5 |
| 20260508134001 | 17 | 341 | 0.0 | 4.8 | 0.00 | 0.03 | 0.03 | 51 | 1018.6 |
| 20260508133503 | 17 | 341 | 1.6 | 9.7 | 0.00 | 0.03 | 0.03 | 53 | 1018.6 |
| 20260508133002 | 17 | 341 | 4.8 | 9.7 | 0.00 | 0.03 | 0.03 | 51 | 1018.6 |
| 20260508132503 | 16 | 355 | 0.0 | 8.0 | 0.00 | 0.03 | 0.03 | 53 | 1018.5 |
| 20260508132100 | 16 | 5 | 1.6 | 9.7 | 0.00 | 0.03 | 0.03 | 53 | 1018.7 |
| 20260508131601 | 16 | 355 | 3.2 | 9.7 | 0.00 | 0.03 | 0.03 | 52 | 1018.6 |
| 20260508131101 | 17 | 346 | 3.2 | 8.0 | 0.00 | 0.03 | 0.03 | 50 | 1018.7 |
| 20260508130600 | 17 | 337 | 1.6 | 8.0 | 0.00 | 0.03 | 0.03 | 50 | 1018.7 |
| 20260508130100 | 17 | 330 | 1.6 | 8.0 | 0.00 | 0.03 | 0.03 | 50 | 1018.7 |
| 20260508125600 | 17 | 321 | 1.6 | 6.4 | 0.00 | 0.03 | 0.03 | 48 | 1018.8 |
| 20260508125059 | 18 | 34 | 1.6 | 8.0 | 0.00 | 0.03 | 0.03 | 51 | 1018.8 |
| 20260508124603 | 17 | 34 | 3.2 | 8.0 | 0.00 | 0.03 | 0.03 | 46 | 1018.8 |
| 20260508124058 | 17 | 340 | 1.6 | 9.7 | 0.00 | 0.03 | 0.03 | 49 | 1018.8 |
| 20260508123558 | 18 | 355 | 0.0 | 8.0 | 0.00 | 0.03 | 0.03 | 48 | 1018.7 |
| 20260508123058 | 17 | 355 | 1.6 | 8.0 | 0.00 | 0.03 | 0.03 | 52 | 1018.8 |
| 20260508122557 | 16 | 360 | 1.6 | 6.4 | 0.00 | 0.03 | 0.03 | 51 | 1018.7 |
| 20260508122059 | 16 | 360 | 1.6 | 8.0 | 0.00 | 0.03 | 0.03 | 50 | 1018.9 |
| 20260508121601 | 17 | 68 | 0.0 | 8.0 | 0.00 | 0.03 | 0.03 | 55 | 1018.9 |
| 20260508121056 | 17 | 315 | 3.2 | 9.7 | 0.00 | 0.03 | 0.03 | 60 | 1018.9 |
| 20260508120557 | 17 | 167 | 4.8 | 9.7 | 0.00 | 0.03 | 0.03 | 55 | 1018.8 |
| 20260508120056 | 17 | 98 | 3.2 | 9.7 | 0.00 | 0.03 | 0.03 | 55 | 1018.8 |
| 20260508115556 | 17 | 348 | 0.0 | 4.8 | 0.00 | 0.03 | 0.03 | 58 | 1018.9 |